Location: Unspecified
(0.0000°N, 0.0000°E)
Time: 11:20:58
(UTC+00:00)

Courier 1B - Pass Details

Date: 24 November 2019
Orbit: 963 x 1209 km, 28.3° (Epoch: 14 December)

Event Time Altitude Azimuth Distance (km) Brightness Sun altitude
Rises 11:12:08 0° 305° (NW) 3,642 10.3 67.8°
Reaches altitude 10° 11:14:47 10° 308° (NW) 2,686 9.7 68.0°
Maximum altitude 11:21:13 69° 30° (NNE) 1,024 8.7 68.5°
Drops below altitude 10° 11:27:43 10° 113° (ESE) 2,724 10.2 68.9°
Sets 11:30:26 0° 115° (ESE) 3,697 10.7 69.1°
